Location: Isles
(48.9125°N, 2.8272°E)
Time: 09:48:27
(UTC+00:00)

ATLAS CENTAUR R/B - Pass Details

Date: 03 February 2023
Orbit: 449 x 650 km, 64.7° (Epoch: 28 March)

Event Time Altitude Azimuth Distance (km) Brightness Sun altitude
Rises 17:16:35 0° 225° (SW) 2,983 6.4 -5.0°
Reaches altitude 10° 17:18:56 10° 227° (SW) 2,064 5.5 -5.4°
Maximum altitude 17:23:37 69° 311° (NW) 688 1.9 -6.1°
Drops below altitude 10° 17:28:09 10° 36° (NE) 1,992 3.7 -6.8°
Enters shadow 17:29:31 - 38° (NE) 2,526 4.2 -7.1°
